FDX8NL EGCC-EGKK

Flight info

Callsign FDX8NL
Flight time 0h 38m
Altitude 19000
Route LISTO L612 HON N859 KIDLI
Aircraft B738/M-SDE2E3FGHIRWXY/LB1

Departure

Time 2026-05-07 18:29
Airport Manchester Airport (EGCC)

Arrival

Time 2026-05-07 19:07
Airport London Gatwick Airport (EGKK)
Time Latitude Longitude Altitude Speed Heading
2026-05-07 17:51 53.36423 -2.28655 254 ft 0 kts 225°
2026-05-07 18:13 53.36419 -2.28656 254 ft 4 kts 219°
2026-05-07 18:13 53.36426 -2.28631 254 ft 4 kts 251°
2026-05-07 18:13 53.36438 -2.28592 254 ft 4 kts 227°
2026-05-07 18:13 53.36459 -2.28566 254 ft 4 kts 197°
2026-05-07 18:14 53.36484 -2.28563 254 ft 4 kts 157°
2026-05-07 18:14 53.36494 -2.28573 254 ft 0 kts 135°
2026-05-07 18:17 53.36493 -2.28570 254 ft 1 kts 135°
2026-05-07 18:17 53.36476 -2.28542 254 ft 6 kts 135°
2026-05-07 18:17 53.36434 -2.28472 254 ft 11 kts 135°
2026-05-07 18:17 53.36379 -2.28380 254 ft 11 kts 135°
2026-05-07 18:18 53.36324 -2.28286 254 ft 11 kts 134°
2026-05-07 18:18 53.36272 -2.28195 254 ft 11 kts 134°
2026-05-07 18:18 53.36220 -2.28108 254 ft 10 kts 135°
2026-05-07 18:18 53.36169 -2.28023 254 ft 10 kts 136°
2026-05-07 18:19 53.36119 -2.27941 254 ft 10 kts 134°
2026-05-07 18:19 53.36071 -2.27863 254 ft 10 kts 143°
2026-05-07 18:19 53.36008 -2.27835 254 ft 9 kts 178°
2026-05-07 18:19 53.35944 -2.27840 254 ft 9 kts 186°
2026-05-07 18:20 53.35882 -2.27852 254 ft 9 kts 186°
2026-05-07 18:20 53.35822 -2.27862 254 ft 9 kts 186°
2026-05-07 18:20 53.35761 -2.27871 254 ft 10 kts 185°
2026-05-07 18:20 53.35688 -2.27836 251 ft 11 kts 118°
2026-05-07 18:21 53.35714 -2.27716 254 ft 11 kts 61°
2026-05-07 18:21 53.35691 -2.27611 255 ft 11 kts 143°
2026-05-07 18:21 53.35634 -2.27533 255 ft 11 kts 127°
2026-05-07 18:21 53.35628 -2.27450 254 ft 0 kts 69°
2026-05-07 18:23 53.35628 -2.27449 254 ft 1 kts 68°
2026-05-07 18:23 53.35640 -2.27417 253 ft 6 kts 55°
2026-05-07 18:23 53.35671 -2.27349 254 ft 9 kts 52°
2026-05-07 18:24 53.35721 -2.27245 254 ft 14 kts 51°
2026-05-07 18:24 53.35786 -2.27110 254 ft 17 kts 51°
2026-05-07 18:24 53.35855 -2.26935 254 ft 19 kts 54°
2026-05-07 18:24 53.35937 -2.26751 254 ft 20 kts 53°
2026-05-07 18:25 53.36013 -2.26583 254 ft 17 kts 51°
2026-05-07 18:25 53.36088 -2.26429 254 ft 17 kts 51°
2026-05-07 18:25 53.36164 -2.26285 254 ft 16 kts 40°
2026-05-07 18:25 53.36229 -2.26183 254 ft 11 kts 50°
2026-05-07 18:26 53.36262 -2.26108 254 ft 7 kts 63°
2026-05-07 18:26 53.36268 -2.26071 254 ft 3 kts 84°
2026-05-07 18:26 53.36268 -2.26067 254 ft 0 kts 86°
2026-05-07 18:26 53.36268 -2.26058 254 ft 3 kts 88°
2026-05-07 18:27 53.36271 -2.25983 254 ft 11 kts 76°
2026-05-07 18:27 53.36282 -2.25831 254 ft 15 kts 109°
2026-05-07 18:27 53.36217 -2.25766 253 ft 10 kts 204°
2026-05-07 18:27 53.36187 -2.25813 253 ft 0 kts 230°
2026-05-07 18:28 53.36172 -2.25842 253 ft 23 kts 230°
2026-05-07 18:29 53.35854 -2.26502 264 ft 119 kts 231°
2026-05-07 18:29 53.35178 -2.27941 425 ft 185 kts 231°
2026-05-07 18:29 53.34301 -2.29775 1178 ft 212 kts 227°
2026-05-07 18:29 53.33388 -2.31592 2629 ft 201 kts 227°
2026-05-07 18:30 53.32455 -2.33502 3357 ft 222 kts 235°
2026-05-07 18:30 53.32037 -2.36047 4046 ft 238 kts 266°
2026-05-07 18:30 53.32065 -2.38947 4635 ft 257 kts 267°
2026-05-07 18:30 53.31730 -2.41865 5034 ft 257 kts 238°
2026-05-07 18:31 53.30499 -2.43962 5838 ft 255 kts 210°
2026-05-07 18:31 53.28834 -2.44929 6833 ft 256 kts 189°
2026-05-07 18:31 53.27049 -2.44800 7722 ft 263 kts 166°
2026-05-07 18:31 53.25349 -2.43576 8601 ft 270 kts 155°
2026-05-07 18:32 53.23677 -2.42075 9454 ft 276 kts 154°
2026-05-07 18:32 53.21990 -2.40549 9900 ft 277 kts 155°
2026-05-07 18:32 53.20274 -2.39004 10005 ft 282 kts 155°
2026-05-07 18:32 53.18549 -2.37470 10011 ft 280 kts 155°
2026-05-07 18:33 53.16825 -2.35953 10016 ft 280 kts 155°
2026-05-07 18:33 53.15073 -2.34420 10117 ft 294 kts 155°
2026-05-07 18:33 53.13204 -2.32792 10324 ft 320 kts 155°
2026-05-07 18:33 53.11129 -2.30989 10508 ft 345 kts 155°
2026-05-07 18:34 53.08980 -2.29120 10919 ft 359 kts 155°
2026-05-07 18:34 53.06745 -2.27172 11602 ft 364 kts 154°
2026-05-07 18:34 53.04502 -2.25215 11962 ft 364 kts 154°
2026-05-07 18:34 53.02982 -2.23892 11998 ft 367 kts 154°
2026-05-07 18:35 52.99986 -2.21284 12005 ft 367 kts 154°
2026-05-07 18:35 52.97729 -2.19324 12005 ft 366 kts 154°
2026-05-07 18:35 52.95471 -2.17366 12009 ft 366 kts 154°
2026-05-07 18:35 52.93216 -2.15413 12009 ft 366 kts 154°
2026-05-07 18:36 52.90963 -2.13466 12368 ft 362 kts 154°
2026-05-07 18:36 52.88712 -2.11523 13057 ft 368 kts 154°
2026-05-07 18:36 52.86421 -2.09549 13740 ft 374 kts 154°
2026-05-07 18:36 52.84101 -2.07552 14350 ft 379 kts 154°
2026-05-07 18:37 52.81752 -2.05532 14962 ft 382 kts 154°
2026-05-07 18:37 52.79386 -2.03499 15574 ft 385 kts 154°
2026-05-07 18:37 52.77005 -2.01455 16213 ft 387 kts 154°
2026-05-07 18:37 52.74613 -1.99405 16861 ft 389 kts 154°
2026-05-07 18:38 52.72203 -1.97341 17526 ft 391 kts 154°
2026-05-07 18:38 52.69775 -1.95266 18204 ft 394 kts 154°
2026-05-07 18:38 52.67336 -1.93183 18800 ft 396 kts 154°
2026-05-07 18:38 52.64855 -1.91069 19007 ft 408 kts 154°
2026-05-07 18:39 52.62324 -1.88914 19012 ft 410 kts 154°
2026-05-07 18:39 52.59779 -1.86749 19020 ft 411 kts 154°
2026-05-07 18:39 52.57245 -1.84595 19027 ft 410 kts 154°
2026-05-07 18:39 52.54705 -1.82440 19025 ft 411 kts 154°
2026-05-07 18:40 52.52166 -1.80288 19024 ft 411 kts 154°
2026-05-07 18:40 52.49626 -1.78138 19022 ft 411 kts 154°
2026-05-07 18:40 52.47114 -1.76015 19023 ft 411 kts 154°
2026-05-07 18:40 52.44574 -1.73871 19019 ft 411 kts 154°
2026-05-07 18:41 52.42022 -1.71719 19023 ft 411 kts 154°
2026-05-07 18:41 52.39480 -1.69579 19024 ft 411 kts 154°
2026-05-07 18:41 52.36932 -1.67437 19023 ft 411 kts 155°
2026-05-07 18:41 52.34333 -1.65530 19017 ft 409 kts 162°
2026-05-07 18:42 52.31631 -1.64078 19022 ft 408 kts 164°
2026-05-07 18:42 52.28911 -1.62702 19020 ft 409 kts 165°
2026-05-07 18:42 52.27079 -1.61784 19037 ft 409 kts 165°
2026-05-07 18:42 52.23478 -1.59970 19040 ft 409 kts 164°
2026-05-07 18:43 52.21557 -1.58991 19039 ft 409 kts 164°
2026-05-07 18:43 52.18056 -1.57191 19047 ft 409 kts 164°
2026-05-07 18:43 52.15345 -1.55788 19044 ft 409 kts 164°
2026-05-07 18:43 52.12631 -1.54381 19042 ft 409 kts 164°
2026-05-07 18:44 52.09923 -1.52977 19042 ft 409 kts 164°
2026-05-07 18:44 52.07213 -1.51574 19038 ft 409 kts 164°
2026-05-07 18:44 52.04503 -1.50172 19040 ft 409 kts 164°
2026-05-07 18:44 52.01791 -1.48771 19045 ft 409 kts 164°
2026-05-07 18:45 51.99076 -1.47371 19020 ft 409 kts 164°
2026-05-07 18:45 51.96363 -1.45973 19021 ft 409 kts 164°
2026-05-07 18:45 51.93651 -1.44578 19025 ft 409 kts 164°
2026-05-07 18:45 51.90935 -1.43183 19022 ft 409 kts 164°
2026-05-07 18:46 51.88236 -1.41798 18896 ft 403 kts 164°
2026-05-07 18:46 51.86477 -1.40895 18524 ft 400 kts 164°
2026-05-07 18:46 51.83817 -1.39532 17765 ft 400 kts 164°
2026-05-07 18:46 51.81168 -1.38178 16976 ft 399 kts 164°
2026-05-07 18:47 51.78526 -1.36829 16285 ft 396 kts 164°
2026-05-07 18:47 51.75995 -1.35155 15666 ft 394 kts 151°
2026-05-07 18:47 51.73700 -1.32767 15086 ft 390 kts 148°
2026-05-07 18:47 51.70773 -1.29630 14947 ft 370 kts 148°
2026-05-07 18:48 51.69326 -1.28085 14977 ft 372 kts 148°
2026-05-07 18:48 51.67108 -1.25737 15031 ft 389 kts 148°
2026-05-07 18:48 51.64823 -1.23339 15024 ft 393 kts 148°
2026-05-07 18:48 51.62572 -1.20986 15019 ft 389 kts 149°
2026-05-07 18:49 51.60301 -1.18622 15021 ft 388 kts 149°
2026-05-07 18:49 51.58039 -1.16274 15021 ft 387 kts 149°
2026-05-07 18:49 51.55824 -1.13980 15026 ft 387 kts 149°
2026-05-07 18:49 51.53536 -1.11615 15031 ft 387 kts 149°
2026-05-07 18:50 51.51266 -1.09272 15037 ft 388 kts 149°
2026-05-07 18:50 51.48988 -1.06924 15037 ft 389 kts 149°
2026-05-07 18:50 51.46706 -1.04574 15031 ft 390 kts 149°
2026-05-07 18:50 51.44420 -1.02223 15033 ft 391 kts 149°
2026-05-07 18:51 51.42134 -0.99873 15053 ft 391 kts 149°
2026-05-07 18:51 51.39841 -0.97520 15053 ft 391 kts 149°
2026-05-07 18:51 51.37548 -0.95170 15057 ft 391 kts 149°
2026-05-07 18:51 51.35259 -0.92826 15058 ft 391 kts 149°
2026-05-07 18:52 51.32968 -0.90483 15055 ft 391 kts 149°
2026-05-07 18:52 51.30683 -0.88149 15060 ft 391 kts 149°
2026-05-07 18:52 51.28387 -0.85808 15058 ft 391 kts 149°
2026-05-07 18:52 51.26098 -0.83475 15057 ft 391 kts 149°
2026-05-07 18:53 51.23809 -0.81145 15057 ft 391 kts 149°
2026-05-07 18:53 51.21515 -0.78814 15056 ft 391 kts 149°
2026-05-07 18:53 51.19225 -0.76489 15056 ft 390 kts 149°
2026-05-07 18:53 51.16932 -0.74162 15059 ft 391 kts 149°
2026-05-07 18:54 51.14641 -0.71841 15059 ft 391 kts 149°
2026-05-07 18:54 51.12373 -0.69546 15058 ft 391 kts 149°
2026-05-07 18:54 51.10045 -0.67192 15056 ft 391 kts 149°
2026-05-07 18:54 51.07781 -0.64908 15062 ft 391 kts 149°
2026-05-07 18:55 51.05629 -0.62276 15045 ft 394 kts 135°
2026-05-07 18:55 51.04080 -0.58679 15073 ft 396 kts 118°
2026-05-07 18:55 51.02887 -0.54725 15061 ft 397 kts 117°
2026-05-07 18:55 51.01695 -0.50760 14863 ft 400 kts 117°
2026-05-07 18:56 51.00485 -0.46817 14493 ft 391 kts 118°
2026-05-07 18:56 50.99337 -0.43144 14024 ft 374 kts 118°
2026-05-07 18:56 50.98182 -0.39481 13506 ft 359 kts 118°
2026-05-07 18:56 50.97082 -0.36004 12965 ft 347 kts 118°
2026-05-07 18:57 50.96014 -0.32632 12436 ft 337 kts 118°
2026-05-07 18:57 50.95014 -0.29325 11907 ft 329 kts 114°
2026-05-07 18:57 50.94203 -0.25962 11402 ft 323 kts 111°
2026-05-07 18:57 50.93448 -0.22643 10843 ft 318 kts 111°
2026-05-07 18:58 50.92709 -0.19362 10312 ft 314 kts 110°
2026-05-07 18:58 50.92419 -0.15965 9722 ft 313 kts 82°
2026-05-07 18:58 50.93201 -0.12810 9141 ft 309 kts 52°
2026-05-07 18:58 50.94839 -0.10730 8628 ft 301 kts 20°
2026-05-07 18:59 50.96842 -0.10300 8255 ft 288 kts 350°
2026-05-07 18:59 50.98628 -0.11526 7765 ft 280 kts 318°
2026-05-07 18:59 50.99694 -0.14030 7285 ft 274 kts 285°
2026-05-07 18:59 50.99952 -0.16999 6841 ft 270 kts 272°
2026-05-07 19:00 51.00018 -0.19973 6356 ft 269 kts 271°
2026-05-07 19:00 51.00056 -0.22935 5849 ft 268 kts 271°
2026-05-07 19:00 51.00088 -0.25880 5366 ft 267 kts 271°
2026-05-07 19:00 51.00118 -0.28806 5050 ft 259 kts 271°
2026-05-07 19:01 51.00141 -0.31575 4995 ft 242 kts 271°
2026-05-07 19:01 51.00163 -0.34158 4986 ft 227 kts 271°
2026-05-07 19:01 51.00183 -0.36598 4974 ft 215 kts 271°
2026-05-07 19:01 51.00302 -0.38947 4983 ft 213 kts 291°
2026-05-07 19:02 51.01198 -0.40772 4712 ft 217 kts 332°
2026-05-07 19:02 51.02576 -0.41696 4368 ft 214 kts 341°
2026-05-07 19:02 51.03971 -0.42535 4018 ft 214 kts 341°
2026-05-07 19:02 51.05366 -0.43372 3659 ft 214 kts 341°
2026-05-07 19:03 51.06729 -0.44189 3301 ft 213 kts 341°
2026-05-07 19:03 51.08181 -0.44722 2861 ft 211 kts
2026-05-07 19:03 51.09434 -0.43724 2549 ft 200 kts 49°
2026-05-07 19:03 51.10285 -0.42129 2539 ft 180 kts 51°
2026-05-07 19:04 51.11090 -0.40647 2501 ft 175 kts 51°
2026-05-07 19:04 51.11799 -0.39117 2512 ft 171 kts 66°
2026-05-07 19:04 51.12219 -0.37334 2355 ft 170 kts 73°
2026-05-07 19:04 51.12542 -0.35569 2133 ft 163 kts 78°
2026-05-07 19:05 51.12792 -0.33827 1909 ft 161 kts 79°
2026-05-07 19:05 51.13025 -0.32122 1688 ft 154 kts 79°
2026-05-07 19:05 51.13247 -0.30488 1474 ft 148 kts 79°
2026-05-07 19:05 51.13463 -0.28900 1288 ft 147 kts 79°
2026-05-07 19:06 51.13675 -0.27337 1084 ft 148 kts 79°
2026-05-07 19:06 51.14099 -0.24184 695 ft 145 kts 78°
2026-05-07 19:06 51.14319 -0.22616 481 ft 145 kts 79°
2026-05-07 19:07 51.14536 -0.21061 258 ft 143 kts 78°
2026-05-07 19:07 51.14738 -0.19587 205 ft 120 kts 77°
2026-05-07 19:07 51.14857 -0.18730 207 ft 37 kts 74°
2026-05-07 19:07 51.14974 -0.18446 200 ft 19 kts 51°
2026-05-07 19:08 51.15020 -0.18354 200 ft 9 kts 50°
2026-05-07 19:08 51.15033 -0.18330 202 ft 2 kts 50°
2026-05-07 19:08 51.15044 -0.18309 206 ft 4 kts 50°
2026-05-07 19:08 51.15077 -0.18244 200 ft 11 kts 51°
2026-05-07 19:09 51.15121 -0.18126 208 ft 13 kts 68°
2026-05-07 19:09 51.15141 -0.18088 211 ft 0 kts 36°
2026-05-07 19:09 51.15144 -0.18085 205 ft 1 kts 30°
2026-05-07 19:09 51.15154 -0.18080 204 ft 3 kts 17°
2026-05-07 19:10 51.15207 -0.18085 201 ft 11 kts 349°
2026-05-07 19:10 51.15293 -0.18115 208 ft 14 kts 347°
2026-05-07 19:10 51.15399 -0.18152 201 ft 17 kts 348°
2026-05-07 19:10 51.15524 -0.18204 205 ft 19 kts 346°
2026-05-07 19:11 51.15641 -0.18264 204 ft 17 kts 307°
2026-05-07 19:11 51.15632 -0.18448 212 ft 17 kts 256°
2026-05-07 19:11 51.15606 -0.18626 203 ft 16 kts 257°
2026-05-07 19:11 51.15588 -0.18773 205 ft 9 kts 276°
2026-05-07 19:12 51.15632 -0.18817 202 ft 8 kts 347°
2026-05-07 19:12 51.15661 -0.18827 210 ft 0 kts 348°